| time (UTC) | temp F | wind direction | speed MPH | gust MPH | rain 1hr in | rain 24hr in | rain mn in | humidity % | barometer mb |
| 20260508174434 | 65 | 0 | 2.0 | 12.0 | 0.00 | 0.00 | 0.00 | 34 | 1013.9 |
| 20260508173437 | 64 | 0 | 2.0 | 8.0 | 0.00 | 0.00 | 0.00 | 39 | 1014.1 |
| 20260508172406 | 64 | 0 | 1.0 | 8.0 | 0.00 | 0.00 | 0.00 | 38 | 1014.3 |
| 20260508165205 | 62 | 0 | 3.0 | 9.0 | 0.00 | 0.00 | 0.00 | 38 | 1015.3 |
| 20260508164227 | 62 | 0 | 2.0 | 11.0 | 0.00 | 0.00 | 0.00 | 37 | 1015.3 |
| 20260508163212 | 63 | 0 | 3.0 | 11.0 | 0.00 | 0.00 | 0.00 | 37 | 1015.3 |
| 20260508160017 | 62 | 0 | 5.0 | 15.0 | 0.00 | 0.00 | 0.00 | 35 | 1015.4 |
| 20260508155016 | 61 | 0 | 4.0 | 15.0 | 0.00 | 0.00 | 0.00 | 37 | 1015.4 |
| 20260508154027 | 59 | 0 | 4.0 | 15.0 | 0.00 | 0.00 | 0.00 | 39 | 1015.5 |
| 20260508153034 | 58 | 0 | 2.0 | 13.0 | 0.00 | 0.00 | 0.00 | 41 | 1015.6 |
| 20260508152000 | 56 | 0 | 2.0 | 13.0 | 0.00 | 0.00 | 0.00 | 43 | 1015.6 |
| 20260508151003 | 55 | 0 | 2.0 | 8.0 | 0.00 | 0.00 | 0.00 | 43 | 1015.7 |
| 20260508150005 | 55 | 0 | 3.0 | 11.0 | 0.00 | 0.00 | 0.00 | 44 | 1015.6 |
| 20260508145022 | 54 | 0 | 3.0 | 11.0 | 0.00 | 0.00 | 0.00 | 44 | 1015.8 |
| 20260508144034 | 53 | 0 | 2.0 | 10.0 | 0.00 | 0.00 | 0.00 | 46 | 1015.7 |
| 20260508141949 | 52 | 0 | 3.0 | 9.0 | 0.00 | 0.00 | 0.00 | 48 | 1015.8 |
| 20260508140951 | 52 | 0 | 2.0 | 9.0 | 0.00 | 0.00 | 0.00 | 48 | 1015.9 |
| 20260508135919 | 51 | 0 | 3.0 | 9.0 | 0.00 | 0.00 | 0.00 | 47 | 1015.9 |
| 20260508134907 | 51 | 0 | 2.0 | 8.0 | 0.00 | 0.00 | 0.00 | 47 | 1015.9 |
| 20260508133859 | 51 | 0 | 2.0 | 8.0 | 0.00 | 0.00 | 0.00 | 47 | 1015.9 |
| 20260508132842 | 51 | 0 | 2.0 | 9.0 | 0.00 | 0.00 | 0.00 | 46 | 1016.0 |
| 20260508131849 | 51 | 0 | 3.0 | 10.0 | 0.00 | 0.00 | 0.00 | 47 | 1015.8 |
| 20260508130842 | 51 | 0 | 3.0 | 11.0 | 0.00 | 0.00 | 0.00 | 46 | 1015.9 |
| 20260508125826 | 51 | 0 | 3.0 | 11.0 | 0.00 | 0.00 | 0.00 | 46 | 1015.9 |
| 20260508124810 | 50 | 0 | 3.0 | 11.0 | 0.00 | 0.00 | 0.00 | 47 | 1015.9 |
| 20260508123827 | 50 | 0 | 3.0 | 9.0 | 0.00 | 0.00 | 0.00 | 47 | 1015.7 |
| 20260508122824 | 49 | 0 | 2.0 | 7.0 | 0.00 | 0.00 | 0.00 | 48 | 1015.8 |
| 20260508121830 | 49 | 0 | 2.0 | 8.0 | 0.00 | 0.00 | 0.00 | 48 | 1015.7 |
| 20260508115630 | 47 | 0 | 2.0 | 8.0 | 0.00 | 0.00 | 0.00 | 49 | 1015.8 |
| 20260508114640 | 47 | 0 | 1.0 | 7.0 | 0.00 | 0.00 | 0.00 | 50 | 1015.7 |
| 20260508112531 | 46 | 0 | 1.0 | 4.0 | 0.00 | 0.00 | 0.00 | 50 | 1015.4 |
| 20260508111511 | 45 | 0 | 1.0 | 4.0 | 0.00 | 0.00 | 0.00 | 50 | 1015.3 |
| 20260508110503 | 45 | 0 | 0.0 | 5.0 | 0.00 | 0.00 | 0.00 | 51 | 1015.4 |
| 20260508105519 | 44 | 0 | 1.0 | 5.0 | 0.00 | 0.00 | 0.00 | 51 | 1015.5 |
| 20260508104455 | 44 | 0 | 1.0 | 7.0 | 0.00 | 0.00 | 0.00 | 51 | 1015.5 |
| 20260508103442 | 44 | 0 | 1.0 | 7.0 | 0.00 | 0.00 | 0.00 | 51 | 1015.6 |
| 20260508102449 | 44 | 0 | 1.0 | 5.0 | 0.00 | 0.00 | 0.00 | 51 | 1015.4 |
| 20260508101455 | 44 | 0 | 1.0 | 3.0 | 0.00 | 0.00 | 0.00 | 51 | 1015.3 |
| 20260508094217 | 44 | 0 | 0.0 | 0.0 | 0.00 | 0.00 | 0.00 | 52 | 1015.2 |
| 20260508093235 | 44 | 0 | 0.0 | 1.0 | 0.00 | 0.00 | 0.00 | 51 | 1015.3 |
| 20260508092240 | 44 | 0 | 0.0 | 1.0 | 0.00 | 0.00 | 0.00 | 50 | 1015.2 |
| 20260508090058 | 45 | 0 | 0.0 | 4.0 | 0.00 | 0.00 | 0.00 | 50 | 1015.4 |
| 20260508085116 | 45 | 0 | 0.0 | 4.0 | 0.00 | 0.00 | 0.00 | 50 | 1015.4 |
| 20260508084105 | 45 | 0 | 1.0 | 4.0 | 0.00 | 0.00 | 0.00 | 50 | 1015.4 |
| 20260508083046 | 45 | 0 | 1.0 | 5.0 | 0.00 | 0.00 | 0.00 | 50 | 1015.4 |
| 20260508082020 | 45 | 0 | 1.0 | 5.0 | 0.00 | 0.00 | 0.00 | 50 | 1015.4 |
| 20260508075841 | 45 | 0 | 0.0 | 4.0 | 0.00 | 0.00 | 0.00 | 50 | 1015.5 |
| 20260508072614 | 45 | 0 | 0.0 | 0.0 | 0.00 | 0.00 | 0.00 | 54 | 1015.3 |
| 20260508071614 | 45 | 0 | 0.0 | 0.0 | 0.00 | 0.00 | 0.00 | 56 | 1015.4 |
| 20260508070624 | 45 | 0 | 0.0 | 0.0 | 0.00 | 0.00 | 0.00 | 55 | 1015.5 |
| 20260508065617 | 46 | 0 | 0.0 | 0.0 | 0.00 | 0.00 | 0.00 | 56 | 1015.7 |
| 20260508064638 | 46 | 0 | 0.0 | 0.0 | 0.00 | 0.00 | 0.00 | 57 | 1015.8 |
| 20260508063643 | 47 | 0 | 0.0 | 0.0 | 0.00 | 0.00 | 0.00 | 56 | 1015.7 |
| 20260508062658 | 47 | 0 | 0.0 | 0.0 | 0.00 | 0.00 | 0.00 | 57 | 1015.7 |
| 20260508061650 | 48 | 0 | 0.0 | 1.0 | 0.00 | 0.00 | 0.00 | 56 | 1015.9 |
| 20260508060643 | 48 | 0 | 0.0 | 0.0 | 0.00 | 0.00 | 0.00 | 56 | 1016.0 |
| 20260508054601 | 49 | 0 | 0.0 | 7.0 | 0.00 | 0.00 | 0.00 | 54 | 1016.8 |
| 20260508053538 | 49 | 0 | 0.0 | 0.0 | 0.00 | 0.00 | 0.00 | 52 | 1016.7 |
| 20260508052529 | 49 | 0 | 0.0 | 0.0 | 0.00 | 0.00 | 0.00 | 50 | 1016.8 |
| 20260508051511 | 49 | 0 | 0.0 | 0.0 | 0.00 | 0.00 | 0.00 | 52 | 1016.1 |
| 20260508050528 | 49 | 0 | 0.0 | 0.0 | 0.00 | 0.00 | 0.00 | 50 | 1015.8 |
| 20260508045534 | 49 | 0 | 0.0 | 0.0 | 0.00 | 0.00 | 0.00 | 53 | 1015.7 |
| 20260508044543 | 49 | 0 | 0.0 | 0.0 | 0.00 | 0.00 | 0.00 | 52 | 1015.9 |
| 20260508043557 | 49 | 0 | 0.0 | 0.0 | 0.00 | 0.00 | 0.00 | 52 | 1015.8 |
| 20260508041459 | 49 | 0 | 0.0 | 0.0 | 0.00 | 0.00 | 0.00 | 51 | 1015.9 |
| 20260508040426 | 49 | 0 | 0.0 | 0.0 | 0.00 | 0.00 | 0.00 | 50 | 1016.0 |
| 20260508035447 | 49 | 0 | 0.0 | 0.0 | 0.00 | 0.00 | 0.00 | 49 | 1016.0 |
| 20260508032150 | 50 | 0 | 0.0 | 0.0 | 0.00 | 0.00 | 0.00 | 47 | 1016.1 |
| 20260508031127 | 50 | 0 | 0.0 | 0.0 | 0.00 | 0.00 | 0.00 | 47 | 1016.0 |
| 20260508024958 | 50 | 0 | 0.0 | 0.0 | 0.00 | 0.00 | 0.00 | 45 | 1016.4 |
| 20260508024017 | 50 | 0 | 0.0 | 0.0 | 0.00 | 0.00 | 0.00 | 48 | 1016.3 |
| 20260508022954 | 51 | 0 | 0.0 | 0.0 | 0.00 | 0.00 | 0.00 | 45 | 1016.1 |
| 20260508020847 | 52 | 0 | 0.0 | 0.0 | 0.00 | 0.00 | 0.00 | 41 | 1016.0 |
| 20260508015822 | 52 | 0 | 0.0 | 0.0 | 0.00 | 0.00 | 0.00 | 40 | 1015.9 |
| 20260508014835 | 52 | 0 | 0.0 | 0.0 | 0.00 | 0.00 | 0.00 | 39 | 1015.9 |
| 20260508013838 | 52 | 0 | 1.0 | 5.0 | 0.00 | 0.00 | 0.00 | 38 | 1015.7 |
| 20260508012816 | 52 | 0 | 0.0 | 2.0 | 0.00 | 0.00 | 0.00 | 40 | 1016.0 |
| 20260508011820 | 52 | 0 | 0.0 | 0.0 | 0.00 | 0.00 | 0.00 | 43 | 1015.9 |
| 20260508010758 | 53 | 0 | 0.0 | 0.0 | 0.00 | 0.00 | 0.00 | 41 | 1015.8 |
| 20260508005733 | 53 | 0 | 0.0 | 0.0 | 0.00 | 0.00 | 0.00 | 40 | 1015.7 |
| 20260508004721 | 54 | 0 | 0.0 | 0.0 | 0.00 | 0.00 | 0.00 | 39 | 1015.7 |
| 20260508003718 | 54 | 0 | 0.0 | 0.0 | 0.00 | 0.00 | 0.00 | 37 | 1015.7 |
| 20260508002644 | 54 | 0 | 0.0 | 0.0 | 0.00 | 0.00 | 0.00 | 37 | 1015.7 |
| 20260508000511 | 55 | 0 | 0.0 | 0.0 | 0.00 | 0.00 | 0.00 | 34 | 1015.6 |
| 20260507235445 | 56 | 0 | 1.0 | 7.0 | 0.00 | 0.00 | 0.00 | 31 | 1015.5 |
| 20260507234418 | 56 | 0 | 1.0 | 7.0 | 0.00 | 0.00 | 0.00 | 29 | 1015.4 |
| 20260507233412 | 56 | 0 | 1.0 | 4.0 | 0.00 | 0.00 | 0.00 | 29 | 1015.3 |
| 20260507232346 | 57 | 0 | 2.0 | 8.0 | 0.00 | 0.00 | 0.00 | 28 | 1015.3 |
| 20260507231347 | 57 | 0 | 1.0 | 8.0 | 0.00 | 0.00 | 0.00 | 29 | 1015.3 |
| 20260507230331 | 57 | 0 | 2.0 | 8.0 | 0.00 | 0.00 | 0.00 | 29 | 1015.3 |
| 20260507225314 | 58 | 0 | 1.0 | 8.0 | 0.00 | 0.00 | 0.00 | 28 | 1015.5 |
| 20260507224254 | 58 | 0 | 2.0 | 8.0 | 0.00 | 0.00 | 0.00 | 27 | 1015.5 |
| 20260507223256 | 58 | 0 | 1.0 | 10.0 | 0.00 | 0.00 | 0.00 | 29 | 1015.6 |
| 20260507222316 | 58 | 0 | 2.0 | 10.0 | 0.00 | 0.00 | 0.00 | 28 | 1015.6 |
| 20260507221247 | 58 | 0 | 2.0 | 10.0 | 0.00 | 0.00 | 0.00 | 29 | 1015.7 |
| 20260507220250 | 57 | 0 | 2.0 | 9.0 | 0.00 | 0.00 | 0.00 | 27 | 1015.7 |
| 20260507215300 | 58 | 0 | 3.0 | 10.0 | 0.00 | 0.00 | 0.00 | 27 | 1015.7 |
| 20260507214242 | 59 | 0 | 4.0 | 14.0 | 0.00 | 0.00 | 0.00 | 27 | 1015.6 |
| 20260507213236 | 58 | 0 | 2.0 | 11.0 | 0.00 | 0.00 | 0.00 | 27 | 1015.4 |
| 20260507212228 | 57 | 0 | 3.0 | 9.0 | 0.00 | 0.00 | 0.00 | 28 | 1015.5 |
| 20260507204948 | 59 | 0 | 2.0 | 14.0 | 0.00 | 0.00 | 0.00 | 28 | 1015.3 |
| 20260507202832 | 60 | 0 | 2.0 | 12.0 | 0.00 | 0.00 | 0.00 | 27 | 1015.3 |
| 20260507200704 | 59 | 0 | 3.0 | 12.0 | 0.00 | 0.00 | 0.00 | 29 | 1015.5 |
| 20260507195724 | 59 | 0 | 5.0 | 14.0 | 0.00 | 0.00 | 0.00 | 28 | 1015.7 |
| 20260507194723 | 58 | 0 | 3.0 | 15.0 | 0.00 | 0.00 | 0.00 | 28 | 1015.5 |
| 20260507193729 | 58 | 0 | 5.0 | 15.0 | 0.00 | 0.00 | 0.00 | 28 | 1015.5 |
| 20260507192717 | 57 | 0 | 4.0 | 13.0 | 0.00 | 0.00 | 0.00 | 29 | 1015.8 |
| 20260507191737 | 58 | 0 | 5.0 | 13.0 | 0.00 | 0.00 | 0.00 | 28 | 1015.9 |
| 20260507190745 | 58 | 0 | 4.0 | 11.0 | 0.00 | 0.00 | 0.00 | 31 | 1015.8 |
| 20260507185735 | 58 | 0 | 5.0 | 14.0 | 0.00 | 0.00 | 0.00 | 29 | 1015.9 |
| 20260507184747 | 59 | 0 | 5.0 | 14.0 | 0.00 | 0.00 | 0.00 | 28 | 1016.0 |
| 20260507182644 | 58 | 0 | 5.0 | 15.0 | 0.00 | 0.00 | 0.00 | 31 | 1015.7 |
| 20260507181622 | 57 | 0 | 4.0 | 14.0 | 0.00 | 0.00 | 0.00 | 32 | 1015.9 |
| 20260507180549 | 58 | 0 | 4.0 | 14.0 | 0.00 | 0.00 | 0.00 | 30 | 1016.2 |
| 20260507175557 | 57 | 0 | 5.0 | 15.0 | 0.00 | 0.00 | 0.00 | 32 | 1016.3 |